DW9872 Weather Reports


Display with metric or nautical units.
time (UTC)temp
F
wind
direction
speed
MPH
gust
MPH
rain 1hr
in
rain 24hr
in
rain mn
in
humidity
%
barometer
mb
20260510103036 51 0.0 0.0 0.00 0.04 0.00 96 1011.6
20260510100016 51 0.0 0.0 0.00 0.04 0.00 96 1011.7
20260510093017 51 0.0 0.0 0.00 0.04 0.00 96 1011.0
20260510090016 52 0.0 0.0 0.00 0.04 0.00 96 1011.0
20260510083017 52 0.0 0.0 0.00 0.04 0.00 96 1010.8
20260510080036 51 0.0 0.0 0.00 0.04 0.00 96 1011.0
20260510073016 51 0.0 0.0 0.00 0.04 0.00 97 1011.1
20260510070016 50 0.0 0.0 0.00 0.04 0.00 95 1010.3
20260510063017 49 0.0 0.0 0.00 0.04 0.00 96 1010.4
20260510060016 50 0.0 0.0 0.00 0.04 0.00 96 1010.9
20260510053037 49 0.0 0.0 0.00 0.04 0.00 94 1010.3
20260510050037 49 0.0 0.0 0.00 0.04 0.00 94 1010.3
20260510043016 50 0.0 0.0 0.00 0.04 0.00 94 1010.5
20260510040016 51 0.0 0.0 0.00 0.04 0.04 94 1010.6
20260510033016 52 0.0 0.0 0.00 0.04 0.04 93 1010.7
20260510030036 53 0.0 0.0 0.00 0.04 0.04 93 1010.5
20260510023016 53 0.0 0.0 0.00 0.04 0.04 93 1010.3
20260510020016 55 0.0 0.0 0.00 0.04 0.04 91 1010.2
20260510013016 55 0.0 0.0 0.00 0.04 0.04 92 1010.1
20260510010016 56 0.0 0.0 0.00 0.04 0.04 89 1009.8
20260510003016 57 0.0 0.0 0.00 0.04 0.04 87 1009.5
20260510000017 59 0.0 0.0 0.00 0.04 0.04 84 1009.1
20260509233016 60 0.0 0.0 0.00 0.04 0.04 79 1009.1
20260509230016 60 0.0 0.0 0.00 0.04 0.04 79 1009.3
20260509223016 60 0.0 3.0 0.00 0.04 0.04 78 1009.0
20260509220036 60 0.0 2.0 0.00 0.04 0.04 79 1009.1
20260509213016 60 0.0 0.0 0.00 0.04 0.04 80 1009.1
20260509210016 60 0.0 1.0 0.00 0.04 0.04 82 1009.4
20260509203016 60 0.0 0.0 0.00 0.04 0.04 80 1009.7
20260509200016 59 0.0 0.0 0.00 0.04 0.04 82 1009.8
20260509193016 58 0.0 0.0 0.01 0.04 0.04 86 1010.0
20260509190016 57 0.0 0.0 0.01 0.04 0.04 89 1010.4
20260509183016 57 0.0 0.0 0.00 0.03 0.03 87 1011.2
20260509180016 57 0.0 0.0 0.00 0.03 0.03 87 1011.1
20260509173016 57 0.0 6.0 0.00 0.03 0.03 86 1011.1
20260509170016 56 0.0 0.0 0.02 0.03 0.03 87 1010.7
20260509163016 58 0.0 5.0 0.03 0.03 0.03 87 1011.0
20260509160016 59 0.0 4.0 0.01 0.01 0.01 85 1011.6
20260509153016 59 0.0 3.0 0.00 0.00 0.00 80 1011.8
20260509150017 59 0.0 3.0 0.00 0.00 0.00 79 1011.6
20260509143016 58 0.0 0.0 0.00 0.00 0.00 77 1011.3
20260509140016 58 0.0 0.0 0.00 0.00 0.00 78 1011.1
20260509133016 58 0.0 0.0 0.00 0.00 0.00 78 1011.1
20260509130016 57 0.0 0.0 0.00 0.00 0.00 78 1011.0
20260509123016 56 0.0 0.0 0.00 0.00 0.00 79 1011.1
20260509120016 55 0.0 0.0 0.00 0.00 0.00 79 1011.1
20260509113016 54 0.0 1.0 0.00 0.00 0.00 80 1011.1
20260509110017 53 0.0 0.0 0.00 0.00 0.00 84 1010.9